Weather reports worldwide

Advertisment
Palma De Mallorca/Son San Ju, Spain (8306): temperature & dewpoint: 13.11.2019 18:00:00 - 19.11.2019 18:00:00 (CET)Palma De Mallorca/Son San Ju, Spain (8306): wind speed: 13.11.2019 18:00:00 - 19.11.2019 18:00:00 (CET)Palma De Mallorca/Son San Ju, Spain (8306): wind direction: 13.11.2019 18:00:00 - 19.11.2019 18:00:00 (CET)Palma De Mallorca/Son San Ju, Spain (8306): reduced air pressure: 13.11.2019 18:00:00 - 19.11.2019 18:00:00 (CET)Palma De Mallorca/Son San Ju, Spain (8306): visibility: 13.11.2019 18:00:00 - 19.11.2019 18:00:00 (CET)
Date & Time tt [°C] td [°C] ff [km/h] ff [kn] dd ppp [hPa] vv [km]
19.11.2019 18:00:00 11,0 4,3 5 3 NW 1015,7 10
19.11.2019 17:00:00 14,1 3,2 15 8 W 1015,4 10
19.11.2019 16:00:00 14,9 3,9 16 9 WSW 1015,3 10
19.11.2019 15:00:00 15,6 4,1 15 8 W 1015,1 10
19.11.2019 14:00:00 15,4 3,9 18 10 WSW 1015,5 10
19.11.2019 13:00:00 15,2 5,8 21 11 WSW 1015,7 30
19.11.2019 12:00:00 15,1 7,3 11 6 WSW 1016,4 10
19.11.2019 11:00:00 13,4 7,9 0 0 N 1016,7 10
19.11.2019 10:00:00 10,0 7,3 0 0 N 1016,7 10
19.11.2019 09:00:00 6,6 6,0 0 0 N 1016,7 10
19.11.2019 08:00:00 4,2 3,8 0 0 N 1016,1 10
19.11.2019 07:00:00 4,1 3,7 8 4 NE 1015,6 10
19.11.2019 06:00:00 5,1 4,7 0 0 N 1015,5 10
19.11.2019 05:00:00 5,3 4,9 8 4 ENE 1015,4 10
19.11.2019 04:00:00 6,9 6,4 5 3 S 1015,4 10
19.11.2019 03:00:00 6,7 6,0 8 4 ENE 1015,2 10
19.11.2019 02:00:00 8,5 7,7 5 3 NE 1015,1 10
19.11.2019 01:00:00 10,0 9,0 2 1 - - 10
19.11.2019 00:00:00 9,8 7,7 11 6 NW 1015,3 10
18.11.2019 23:00:00 8,2 5,9 8 4 NNW 1014,5 10
18.11.2019 22:00:00 8,3 5,9 4 2 E 1013,7 18
18.11.2019 21:00:00 9,5 4,9 8 4 N 1013,6 10
18.11.2019 20:00:00 10,6 4,7 11 6 NNE 1012,7 10
18.11.2019 19:00:00 10,8 5,5 15 8 NNE 1011,7 10
18.11.2019 18:00:00 11,7 6,0 15 8 NNE 1010,7 10
18.11.2019 17:00:00 12,8 6,9 24 13 NE 1009,7 10
18.11.2019 16:00:00 13,9 8,4 15 8 NE 1009,0 20
18.11.2019 15:00:00 12,6 10,7 13 7 ENE 1008,6 10
18.11.2019 14:00:00 13,0 10,0 24 13 ENE 1007,9 6
18.11.2019 13:00:00 14,7 7,8 9 5 NE 1007,4 20
18.11.2019 12:00:00 14,5 8,6 9 5 N 1007,7 10
18.11.2019 11:00:00 13,4 9,0 0 0 N 1007,9 10
18.11.2019 10:00:00 11,7 9,9 5 3 NNW 1007,0 10
18.11.2019 09:00:00 11,2 9,8 5 3 SE 1007,1 10
18.11.2019 08:00:00 11,0 9,6 4 2 - 1006,5 10
18.11.2019 07:00:00 10,9 9,5 2 1 NE 1006,4 10
18.11.2019 06:00:00 11,2 10,3 5 3 N 1006,1 10
18.11.2019 05:00:00 11,1 10,5 4 2 N 1006,1 10
18.11.2019 04:00:00 11,3 10,5 2 1 NNE 1006,4 10
18.11.2019 03:00:00 12,4 10,6 5 3 W 1007,1 10
18.11.2019 02:00:00 13,2 10,0 13 7 W 1007,4 10
18.11.2019 01:00:00 14,6 8,8 18 10 W 1008,1 10
18.11.2019 00:00:00 12,6 8,5 13 7 WNW 1008,7 10
17.11.2019 23:00:00 14,8 8,1 18 10 WSW 1008,6 10
17.11.2019 22:00:00 14,2 7,7 22 12 WSW 1009,6 10
17.11.2019 21:00:00 14,7 7,5 21 11 WSW 1010,2 10
17.11.2019 20:00:00 14,5 6,6 18 10 WSW 1010,5 10
17.11.2019 19:00:00 14,2 6,8 22 12 W 1010,6 10
17.11.2019 18:00:00 14,2 6,5 24 13 W 1010,3 10
17.11.2019 17:00:00 14,5 6,5 28 15 WSW 1010,5 10
17.11.2019 16:00:00 15,2 6,1 24 13 W 1010,4 30
17.11.2019 15:00:00 15,5 6,0 34 18 W 1010,7 10
17.11.2019 14:00:00 14,8 5,6 29 16 W 1010,7 10
17.11.2019 13:00:00 14,7 6,3 31 17 W 1011,1 10
17.11.2019 12:00:00 14,8 4,0 29 16 W 1011,4 10
17.11.2019 11:00:00 15,5 3,4 28 15 W 1011,7 10
17.11.2019 10:00:00 14,8 3,7 21 11 W 1011,6 10
17.11.2019 09:00:00 13,1 3,6 13 7 W 1011,4 10
17.11.2019 08:00:00 10,7 2,9 11 6 WSW 1010,9 10
17.11.2019 07:00:00 11,3 2,8 15 8 WNW 1010,6 20
17.11.2019 06:00:00 11,2 3,2 15 8 W 1010,4 10
17.11.2019 05:00:00 11,9 2,3 8 4 W 1010,6 10
17.11.2019 04:00:00 12,5 2,9 13 7 W 1010,8 15
17.11.2019 03:00:00 12,4 3,3 13 7 WNW 1010,9 10
17.11.2019 02:00:00 12,9 3,4 16 9 WNW 1010,7 10
17.11.2019 01:00:00 13,0 4,7 22 12 WNW 1010,9 10
17.11.2019 00:00:00 12,1 4,5 13 7 NW 1011,2 10
16.11.2019 23:00:00 12,0 4,0 4 2 NNW 1011,5 10
16.11.2019 22:00:00 11,1 3,7 13 7 WNW 1011,3 10
16.11.2019 21:00:00 11,2 5,3 11 6 NW 1011,2 10
16.11.2019 20:00:00 8,7 6,3 0 0 N 1011,4 10
16.11.2019 19:00:00 9,5 6,6 8 4 NNW 1010,9 10
16.11.2019 18:00:00 10,4 7,3 11 6 NNW 1010,2 10
16.11.2019 17:00:00 11,6 6,1 11 6 N 1009,4 10
16.11.2019 16:00:00 11,7 7,5 8 4 N 1009,2 10
16.11.2019 15:00:00 10,8 8,2 8 4 N 1009,3 10
16.11.2019 14:00:00 12,0 7,1 34 18 N 1009,2 8
16.11.2019 13:00:00 13,8 6,2 0 0 N 1009,0 10
16.11.2019 12:00:00 11,9 6,6 4 2 - 1009,6 10
16.11.2019 11:00:00 10,1 6,3 0 0 N 1009,9 10
16.11.2019 10:00:00 8,9 6,1 8 4 NNW 1009,7 30
16.11.2019 09:00:00 7,8 5,4 8 4 N 1009,2 10
16.11.2019 08:00:00 7,0 4,6 9 5 E 1008,8 10
16.11.2019 07:00:00 6,3 4,9 9 5 ENE 1007,7 18
16.11.2019 06:00:00 7,2 5,2 5 3 NE 1007,2 10
16.11.2019 05:00:00 7,9 5,4 9 5 NE 1006,9 10
16.11.2019 04:00:00 8,1 5,6 11 6 E 1007,2 16
16.11.2019 03:00:00 8,6 5,7 8 4 E 1007,4 10
16.11.2019 02:00:00 8,9 6,3 18 10 NNW 1006,8 10
16.11.2019 01:00:00 6,6 4,6 11 6 NNE 1006,3 20
16.11.2019 00:00:00 4,9 3,9 0 0 N 1006,0 10
15.11.2019 23:00:00 5,0 3,8 5 3 N 1006,0 10
15.11.2019 22:00:00 5,8 4,1 4 2 NE 1005,8 20
15.11.2019 21:00:00 7,1 4,7 2 1 - 1005,2 10
15.11.2019 20:00:00 7,9 5,0 0 0 N 1004,7 10
15.11.2019 19:00:00 10,3 4,4 5 3 WNW 1004,0 10
15.11.2019 18:00:00 11,5 4,7 11 6 WNW 1003,6 10
15.11.2019 17:00:00 13,1 5,5 9 5 W 1003,1 10
15.11.2019 16:00:00 13,6 3,7 13 7 W 1002,5 30
15.11.2019 15:00:00 14,7 4,1 18 10 WSW 1002,0 10
15.11.2019 14:00:00 14,4 4,9 15 8 WSW 1001,7 10
15.11.2019 13:00:00 13,3 3,3 15 8 WNW 1001,5 30
15.11.2019 12:00:00 13,5 6,0 16 9 NW 1002,4 10
15.11.2019 11:00:00 13,8 6,5 16 9 WNW 1002,3 10
15.11.2019 10:00:00 12,7 6,4 16 9 WNW 1001,5 10
15.11.2019 09:00:00 11,3 6,9 11 6 WNW 1000,9 10
15.11.2019 08:00:00 10,7 6,8 16 9 NW 1000,2 10
15.11.2019 07:00:00 12,9 6,0 26 14 WSW 999,1 10
15.11.2019 06:00:00 12,8 5,8 35 19 WSW 999,3 10
15.11.2019 05:00:00 12,5 5,6 34 18 WSW 999,4 10
15.11.2019 04:00:00 7,5 6,6 9 5 NE 999,6 10
15.11.2019 03:00:00 7,3 6,4 8 4 ENE 1000,2 10
15.11.2019 02:00:00 7,3 6,6 4 2 ENE 1000,4 10
15.11.2019 01:00:00 6,7 5,8 4 2 E 1000,5 20
15.11.2019 00:00:00 7,0 6,1 0 0 N 1001,1 10
14.11.2019 23:00:00 7,5 6,6 5 3 ENE 1000,6 10
14.11.2019 22:00:00 9,2 7,8 2 1 - 1000,2 10
14.11.2019 21:00:00 10,8 8,3 4 2 - 999,9 10
14.11.2019 20:00:00 11,9 7,8 8 4 NW 999,4 10
14.11.2019 19:00:00 12,0 7,9 9 5 SW 999,1 10
14.11.2019 18:00:00 11,6 9,2 11 6 WNW 999,3 10
14.11.2019 17:00:00 11,8 9,0 26 14 NW 998,7 9
14.11.2019 16:00:00 14,2 9,2 15 8 NNW 998,3 10
14.11.2019 15:00:00 16,2 7,9 24 13 W 998,0 10
14.11.2019 14:00:00 17,0 9,2 34 18 W 998,4 10
14.11.2019 13:00:00 17,3 10,8 26 14 W 999,0 22
14.11.2019 12:00:00 17,9 14,2 44 24 SW 999,7 10
14.11.2019 11:00:00 18,0 14,9 31 17 SW 1000,6 10
14.11.2019 10:00:00 18,0 14,9 31 17 SSW 1001,8 10
14.11.2019 09:00:00 17,5 14,6 22 12 SSW 1002,6 10
14.11.2019 08:00:00 16,7 13,4 26 14 SSW 1003,0 10
14.11.2019 07:00:00 12,6 12,2 11 6 SW 1004,3 12
14.11.2019 06:00:00 7,4 7,0 2 1 NE 1005,4 10
14.11.2019 05:00:00 6,3 5,9 4 2 - 1006,4 10
14.11.2019 04:00:00 5,8 5,4 4 2 N 1007,8 12
14.11.2019 03:00:00 6,0 5,4 2 1 SSE 1009,1 10
14.11.2019 02:00:00 6,6 6,2 4 2 - 1009,5 10
14.11.2019 01:00:00 6,6 6,2 8 4 E 1010,0 15
14.11.2019 00:00:00 6,7 6,3 8 4 NNE 1010,5 10
13.11.2019 23:00:00 7,2 6,5 2 1 - 1011,9 10
13.11.2019 22:00:00 8,3 7,6 4 2 N 1011,8 18
13.11.2019 21:00:00 9,3 8,4 5 3 ENE 1011,1 10
13.11.2019 20:00:00 10,1 8,9 0 0 N 1010,7 10
13.11.2019 19:00:00 11,9 9,5 8 4 NW 1010,1 20
13.11.2019 18:00:00 13,2 10,0 0 0 N 1009,1 10

tt = temperature
td = dewpoint
ff = wind speed
dd = wind direction
ppp = reduced air pressure
vv = visibility

Next stations